Regional Weather Roundup
Issued by NWS Kansas City/Pleasant Hill, MO

Home | Current Version | Previous Version | Graphics & Text | Print | Product List | Glossary Off
Versions: 1 2 3 4 5 6 7 8 9 10 11 12 13 14 15 16 17 18 19 20 21 22 23 24 25 26 27 28 29 30 31 32 33 34 35 36 37 38 39 40 41 42 43 44 45 46 47 48 49 50

993
ASUS43 KEAX 220110
RWREAX

WEATHER ROUNDUP FOR EASTERN KANSAS AND NORTHWEST MISSOURI
NATIONAL WEATHER SERVICE KANSAS CITY/PLEASANT HILL MO
800 PM CDT SAT APR 21 2018

KSZ040-057-103>105-MOZ028-029-037-043-220200-
...KANSAS CITY METROPOLITAN AREA...

CITY           SKY/WX    TMP DP  RH WIND       PRES   REMARKS
K.C. INTL      CLOUDY    60  28  29 E12G23    30.13R
K.C. DOWNTOWN  CLOUDY    63  28  26 E15G24    30.11R
LEES SUMMIT    CLOUDY    61  29  29 E10       30.13R
OLATHE - IXD   CLOUDY    61  35  37 E5        30.11R
OLATHE - OJC   CLOUDY    60  33  36 E6        30.11R
LAWRENCE       CLOUDY    53  43  68 NW12      30.11S

$$

MOZ001>008-011>017-020>025-030>033-038>040-044>046-053-054-220200-
...NORTHERN AND CENTRAL MISSOURI...

CITY           SKY/WX    TMP DP  RH WIND       PRES   REMARKS
ST. JOSEPH     CLOUDY    59  30  33 NE13      30.16R
MOSBY          CLOUDY    61  27  27 E12G18    30.14R
WARRENSBURG    CLOUDY    59  28  31 NE12      30.11R
WHITEMAN AFB   PTCLDY    60  28  29 E10       30.07R
CLINTON        CLOUDY    63  30  29 E12       30.10R
SEDALIA        CLOUDY    61  29  29 NE14      30.11F
WARSAW         NOT AVBL
CHILLICOTHE      N/A     58  28  32 E9        30.19R
KIRKSVILLE     CLOUDY    55  31  39 E10       30.21F

$$

MOZ041-047>049-056>058-063>065-088>090-097-220200-
...EASTERN AND SOUTHERN MISSOURI...

CITY           SKY/WX    TMP DP  RH WIND       PRES   REMARKS
ST. LOUIS INTL CLOUDY    62  33  33 E12       30.20F
SPIRIT OF STL  CLOUDY    62  34  35 E15       30.17S
COLUMBIA       CLOUDY    61  30  31 NE13      30.14S
JEFFERSON CITY MOCLDY    64  30  27 E10       30.12F
ROLLA          CLOUDY    61  34  36 E12       30.13F
OSAGE BEACH    CLOUDY    63  34  33 NE16      30.08F
SPRINGFIELD    LGT RAIN  61  42  49 E7        30.06R
BRANSON        CLOUDY    61  43  51 E3        30.05R
JOPLIN         LGT RAIN  53  53 100 NW7       30.09S
WEST PLAINS    CLOUDY    64  35  34 E8        30.09F

$$

IAZ060-094-KSZ022-034>040-054-083-096-NEZ052-066-093-220200-
...KANSAS...SOUTHEAST NEBRASKA AND IOWA...

CITY           SKY/WX    TMP DP  RH WIND       PRES   REMARKS
TOPEKA         CLOUDY    50  44  80 NW9       30.13S
MANHATTAN      LGT RAIN  48  44  86 NE6       30.18S
EMPORIA        LGT RAIN  44  42  93 N7        30.14S FOG
CHANUTE        LGT RAIN  47  45  93 N10       30.11F
WICHITA        LGT RAIN  45  45 100 N9        30.13S FOG
OMAHA          CLOUDY    52  35  52 N6        30.24S
LINCOLN        CLOUDY    49  36  61 E10       30.23S
FALLS CITY     CLOUDY    53  36  52 NE7       30.17S
LAMONI         CLOUDY    54  28  36 E7        30.21R
DES MOINES     CLOUDY    56  24  29 E8        30.27R

$$





USA.gov is the U.S. government's official web portal to all federal, state and local government web resources and services.